NJE564A LGMK-LGKL

Flight info

Callsign NJE564A
Flight time N/A
Altitude 32000
Route DIDIS DCT ALANI DCT EKTOS DCT TRL DCT ANEPI DCT BERAP
Aircraft CL60/M-SBDE1E2E3FGHIJ1J4J5J7M3RWXYZ/LB1V1D1

Departure

Time 2026-04-28 16:49
Airport Mykonos Island National Airport (LGMK)

Arrival

Time N/A
Airport Kalamata Airport (LGKL)
Time Latitude Longitude Altitude Speed Heading
2026-04-28 16:34 37.43578 25.34615 411 ft 0 kts 250°
2026-04-28 16:43 37.43580 25.34622 412 ft 2 kts 248°
2026-04-28 16:43 37.43585 25.34640 411 ft 2 kts 250°
2026-04-28 16:43 37.43589 25.34652 411 ft 0 kts 250°
2026-04-28 16:43 37.43597 25.34665 411 ft 2 kts 208°
2026-04-28 16:44 37.43611 25.34668 411 ft 1 kts 163°
2026-04-28 16:44 37.43616 25.34666 411 ft 0 kts 159°
2026-04-28 16:46 37.43611 25.34668 411 ft 3 kts 159°
2026-04-28 16:46 37.43563 25.34689 412 ft 10 kts 160°
2026-04-28 16:46 37.43469 25.34731 413 ft 15 kts 160°
2026-04-28 16:46 37.43404 25.34820 412 ft 15 kts 115°
2026-04-28 16:47 37.43335 25.34904 411 ft 17 kts 161°
2026-04-28 16:47 37.43205 25.34962 410 ft 22 kts 161°
2026-04-28 16:47 37.43041 25.35035 407 ft 27 kts 160°
2026-04-28 16:47 37.42845 25.35122 398 ft 26 kts 160°
2026-04-28 16:48 37.42766 25.35183 390 ft 14 kts 133°
2026-04-28 16:48 37.42726 25.35178 386 ft 4 kts 260°
2026-04-28 16:48 37.42741 25.35165 388 ft 1 kts
2026-04-28 16:48 37.42743 25.35166 388 ft 0 kts
2026-04-28 16:49 37.42788 25.35147 393 ft 24 kts 340°
2026-04-28 16:49 37.43294 25.34923 411 ft 128 kts 340°
2026-04-28 16:49 37.44247 25.34479 1191 ft 158 kts 334°
2026-04-28 16:49 37.45056 25.33535 2359 ft 172 kts 320°
2026-04-28 16:50 37.45822 25.32168 2898 ft 219 kts 296°
2026-04-28 16:50 37.46323 25.30167 3468 ft 254 kts 289°
2026-04-28 16:50 37.46468 25.27843 4085 ft 272 kts 263°
2026-04-28 16:50 37.45745 25.25606 4717 ft 282 kts 245°
2026-04-28 16:51 37.44793 25.23393 5346 ft 284 kts 245°
2026-04-28 16:51 37.43859 25.21198 5973 ft 285 kts 245°
2026-04-28 16:51 37.42916 25.18982 6608 ft 287 kts 245°
2026-04-28 16:51 37.41967 25.16753 7236 ft 289 kts 245°
2026-04-28 16:52 37.41004 25.14495 8030 ft 286 kts 245°
2026-04-28 16:52 37.40058 25.12274 8917 ft 291 kts 245°
2026-04-28 16:52 37.39082 25.09977 9714 ft 299 kts 245°
2026-04-28 16:52 37.38092 25.07655 10466 ft 302 kts 245°
2026-04-28 16:53 37.37088 25.05300 11230 ft 304 kts 244°
2026-04-28 16:53 37.36080 25.02934 11981 ft 321 kts 244°
2026-04-28 16:53 37.34967 25.00319 12735 ft 346 kts 244°
2026-04-28 16:53 37.33813 24.97613 13469 ft 359 kts 244°
2026-04-28 16:54 37.32612 24.94804 14225 ft 364 kts 244°
2026-04-28 16:54 37.31392 24.91956 14991 ft 367 kts 244°
2026-04-28 16:54 37.30184 24.89136 15746 ft 370 kts 244°
2026-04-28 16:54 37.29356 24.87205 16270 ft 373 kts 244°
2026-04-28 16:55 37.27697 24.83335 17288 ft 379 kts 244°
2026-04-28 16:55 37.26448 24.80427 18009 ft 382 kts 245°
2026-04-28 16:55 37.25161 24.77433 18808 ft 385 kts 245°
2026-04-28 16:55 37.23882 24.74457 19546 ft 390 kts 245°
2026-04-28 16:56 37.22560 24.71383 19952 ft 398 kts 245°
2026-04-28 16:56 37.21216 24.68262 20063 ft 397 kts 245°
2026-04-28 16:56 37.19894 24.65199 20065 ft 395 kts 245°
2026-04-28 16:56 37.18587 24.62174 20060 ft 393 kts 245°
2026-04-28 16:57 37.17263 24.59108 20058 ft 393 kts 245°
2026-04-28 16:57 37.15955 24.56082 20064 ft 393 kts 245°
2026-04-28 16:57 37.14626 24.53013 20065 ft 393 kts 245°
2026-04-28 16:57 37.13319 24.49996 20062 ft 393 kts 245°
2026-04-28 16:58 37.12020 24.47001 20063 ft 392 kts 245°
2026-04-28 16:58 37.10693 24.43942 20064 ft 393 kts 245°
2026-04-28 16:58 37.09398 24.40959 20063 ft 393 kts 245°
2026-04-28 16:58 37.08077 24.37922 20063 ft 393 kts 245°
2026-04-28 16:59 37.06750 24.34873 20064 ft 393 kts 244°
2026-04-28 16:59 37.05436 24.31854 20066 ft 393 kts 244°
2026-04-28 16:59 37.04116 24.28827 20065 ft 393 kts 245°
2026-04-28 16:59 37.02797 24.25802 20067 ft 393 kts 244°
2026-04-28 17:00 37.01463 24.22747 20064 ft 400 kts 245°
2026-04-28 17:00 37.00092 24.19603 20066 ft 412 kts 245°
2026-04-28 17:00 36.98695 24.16408 20066 ft 418 kts 245°
2026-04-28 17:00 36.97276 24.13169 20064 ft 419 kts 244°
2026-04-28 17:01 36.95859 24.09938 20070 ft 418 kts 244°
2026-04-28 17:01 36.94451 24.06733 20071 ft 418 kts 244°
2026-04-28 17:01 36.93078 24.03475 20072 ft 416 kts 249°
2026-04-28 17:01 36.92281 24.00020 20078 ft 410 kts 265°
2026-04-28 17:02 36.92269 23.96480 20075 ft 404 kts 280°
2026-04-28 17:02 36.92677 23.94179 20075 ft 401 kts 290°
2026-04-28 17:02 36.92977 23.93078 20070 ft 400 kts 292°
2026-04-28 17:03 36.97031 23.79873 20029 ft 398 kts 293°
2026-04-28 17:03 36.98011 23.76665 20038 ft 398 kts 293°
2026-04-28 17:03 36.99012 23.73388 20034 ft 398 kts 293°
2026-04-28 17:04 37.00995 23.66880 20039 ft 398 kts 293°
2026-04-28 17:04 37.01995 23.63595 20059 ft 398 kts 293°
2026-04-28 17:05 37.03990 23.57025 20067 ft 399 kts 293°
2026-04-28 17:05 37.04969 23.53793 20070 ft 400 kts 293°
2026-04-28 17:05 37.05970 23.50486 20071 ft 400 kts 293°
2026-04-28 17:06 37.07961 23.43896 20076 ft 400 kts 293°
2026-04-28 17:06 37.08952 23.40609 20066 ft 400 kts 293°
2026-04-28 17:06 37.10897 23.34142 20074 ft 399 kts 292°
2026-04-28 17:07 37.11869 23.30910 20070 ft 399 kts 292°
2026-04-28 17:07 37.12865 23.27587 20061 ft 399 kts 292°
2026-04-28 17:07 37.13842 23.24324 20067 ft 399 kts 292°
2026-04-28 17:07 37.14815 23.21069 20075 ft 399 kts 292°
2026-04-28 17:08 37.15811 23.17733 20074 ft 400 kts 292°
2026-04-28 17:08 37.16792 23.14444 20069 ft 400 kts 292°
2026-04-28 17:08 37.17775 23.11145 20063 ft 400 kts 292°
2026-04-28 17:08 37.18747 23.07876 20069 ft 400 kts 292°
2026-04-28 17:09 37.19733 23.04558 20077 ft 400 kts 292°
2026-04-28 17:09 37.20716 23.01244 20071 ft 401 kts 292°
2026-04-28 17:09 37.21703 22.97914 20074 ft 401 kts 292°
2026-04-28 17:09 37.22617 22.94828 20081 ft 401 kts 292°
2026-04-28 17:10 37.23573 22.91596 20087 ft 401 kts 292°
2026-04-28 17:10 37.24546 22.88301 20094 ft 400 kts 292°
2026-04-28 17:10 37.25485 22.84959 20105 ft 401 kts 288°
2026-04-28 17:10 37.25836 22.81454 20119 ft 405 kts 271°
2026-04-28 17:11 37.25334 22.77915 20113 ft 410 kts 257°
2026-04-28 17:11 37.24488 22.74449 20117 ft 410 kts 256°
2026-04-28 17:11 37.23644 22.70990 20116 ft 410 kts 256°
2026-04-28 17:11 37.22803 22.67542 20114 ft 410 kts 256°
2026-04-28 17:12 37.21959 22.64088 20111 ft 410 kts 256°
2026-04-28 17:12 37.21120 22.60659 20109 ft 410 kts 256°
2026-04-28 17:12 37.20276 22.57215 20109 ft 410 kts 256°
2026-04-28 17:12 37.19426 22.53751 20105 ft 410 kts 256°
2026-04-28 17:13 37.18588 22.50341 20099 ft 410 kts 256°
2026-04-28 17:13 37.17732 22.46863 20095 ft 410 kts 256°
2026-04-28 17:13 37.16880 22.43408 20099 ft 410 kts 256°
2026-04-28 17:13 37.16043 22.40018 20100 ft 410 kts 256°
2026-04-28 17:14 37.15192 22.36575 20096 ft 409 kts 256°
2026-04-28 17:14 37.14332 22.33103 20103 ft 409 kts 255°
2026-04-28 17:14 37.13476 22.29650 20105 ft 409 kts 255°
2026-04-28 17:14 37.12632 22.26251 20104 ft 409 kts 255°
2026-04-28 17:15 37.11776 22.22815 20103 ft 395 kts 255°
2026-04-28 17:15 37.10972 22.19594 20103 ft 380 kts 255°
2026-04-28 17:15 37.10190 22.16464 20093 ft 370 kts 256°
2026-04-28 17:15 37.09428 22.13412 19801 ft 365 kts 256°
2026-04-28 17:16 37.08662 22.10348 19345 ft 358 kts 256°
2026-04-28 17:16 37.07925 22.07385 18879 ft 352 kts 257°
2026-04-28 17:16 37.07560 22.04427 18407 ft 342 kts 273°
2026-04-28 17:16 37.07726 22.02517 18083 ft 336 kts 285°